| time (UTC) | temp F | wind direction | speed MPH | gust MPH | rain 1hr in | rain 24hr in | rain mn in | humidity % | barometer mb |
| 20260510220008 | 66 | 26 | 0.0 | 4.0 | 0.00 | 0.00 | 0.00 | 66 | 1019.1 |
| 20260510214513 | 67 | 352 | 0.0 | 3.0 | 0.00 | 0.00 | 0.00 | 64 | 1018.8 |
| 20260510213013 | 67 | 26 | 0.0 | 2.0 | 0.00 | 0.00 | 0.00 | 65 | 1019.0 |
| 20260510211529 | 67 | 51 | 1.0 | 4.0 | 0.00 | 0.00 | 0.00 | 63 | 1018.7 |
| 20260510210008 | 67 | 352 | 0.0 | 10.0 | 0.00 | 0.00 | 0.00 | 62 | 1018.9 |
| 20260510204516 | 68 | 341 | 1.0 | 9.0 | 0.00 | 0.00 | 0.00 | 61 | 1019.1 |
| 20260510203012 | 69 | 29 | 1.0 | 8.0 | 0.00 | 0.00 | 0.00 | 59 | 1018.8 |
| 20260510201516 | 70 | 11 | 0.0 | 3.0 | 0.00 | 0.00 | 0.00 | 62 | 1018.8 |
| 20260510200010 | 70 | 302 | 2.0 | 9.0 | 0.00 | 0.00 | 0.00 | 1018.9 | |
| 20260510194518 | 70 | 338 | 1.0 | 4.0 | 0.00 | 0.00 | 0.00 | 64 | 1018.9 |
| 20260510193009 | 70 | 263 | 1.0 | 5.0 | 0.00 | 0.00 | 0.00 | 64 | 1018.9 |
| 20260510191521 | 71 | 5 | 1.0 | 5.0 | 0.00 | 0.00 | 0.00 | 68 | 1019.0 |
| 20260510190015 | 70 | 360 | 2.0 | 8.0 | 0.00 | 0.00 | 0.00 | 65 | 1018.9 |
| 20260510184509 | 69 | 273 | 2.0 | 5.0 | 0.00 | 0.00 | 0.00 | 68 | 1018.7 |
| 20260510183012 | 69 | 61 | 1.0 | 5.0 | 0.00 | 0.00 | 0.00 | 69 | 1018.8 |
| 20260510181515 | 69 | 50 | 1.0 | 4.0 | 0.00 | 0.00 | 0.00 | 70 | 1018.7 |
| 20260510180015 | 69 | 327 | 1.0 | 4.0 | 0.00 | 0.00 | 0.00 | 68 | 1018.4 |
| 20260510174517 | 69 | 29 | 2.0 | 11.0 | 0.00 | 0.00 | 0.00 | 69 | 1018.5 |
| 20260510173014 | 69 | 55 | 2.0 | 6.0 | 0.00 | 0.00 | 0.00 | 70 | 1018.5 |
| 20260510171515 | 69 | 352 | 1.0 | 9.0 | 0.00 | 0.00 | 0.00 | 72 | 1018.6 |
| 20260510170028 | 69 | 58 | 1.0 | 5.0 | 0.00 | 0.00 | 0.00 | 70 | 1018.3 |
| 20260510164510 | 69 | 345 | 1.0 | 4.0 | 0.00 | 0.00 | 0.00 | 72 | 1018.0 |
| 20260510163003 | 68 | 281 | 1.0 | 4.0 | 0.00 | 0.00 | 0.00 | 72 | 1017.6 |
| 20260510161506 | 69 | 19 | 1.0 | 4.0 | 0.00 | 0.00 | 0.00 | 70 | 1017.3 |
| 20260510160010 | 69 | 360 | 1.0 | 3.0 | 0.00 | 0.00 | 0.00 | 69 | 1017.3 |
| 20260510154504 | 69 | 343 | 1.0 | 4.0 | 0.00 | 0.00 | 0.00 | 76 | 1017.0 |
| 20260510153004 | 68 | 54 | 1.0 | 4.0 | 0.00 | 0.00 | 0.00 | 77 | 1017.0 |
| 20260510151504 | 68 | 352 | 1.0 | 5.0 | 0.00 | 0.00 | 0.00 | 75 | 1017.0 |
| 20260510150004 | 67 | 292 | 1.0 | 2.0 | 0.00 | 0.00 | 0.00 | 79 | 1017.1 |
| 20260510144504 | 67 | 5 | 0.0 | 2.0 | 0.00 | 0.00 | 0.00 | 79 | 1017.3 |
| 20260510143004 | 67 | 351 | 0.0 | 1.0 | 0.00 | 0.00 | 0.00 | 81 | 1017.2 |
| 20260510141508 | 66 | 150 | 0.0 | 1.0 | 0.00 | 0.00 | 0.00 | 80 | 1017.3 |
| 20260510140010 | 65 | 150 | 0.0 | 1.0 | 0.00 | 0.00 | 0.00 | 79 | 1017.2 |
| 20260510134505 | 64 | 148 | 0.0 | 1.0 | 0.00 | 0.00 | 0.00 | 84 | 1016.9 |
| 20260510133010 | 63 | 148 | 0.0 | 1.0 | 0.00 | 0.00 | 0.00 | 84 | 1016.7 |
| 20260510131505 | 62 | 148 | 0.0 | 0.0 | 0.00 | 0.00 | 0.00 | 86 | 1016.4 |
| 20260510130012 | 61 | 148 | 0.0 | 2.0 | 0.00 | 0.00 | 0.00 | 87 | 1016.2 |
| 20260510124504 | 59 | 229 | 0.0 | 1.0 | 0.00 | 0.00 | 0.00 | 90 | 1016.2 |
| 20260510123017 | 58 | 272 | 0.0 | 1.0 | 0.00 | 0.00 | 0.00 | 90 | 1015.8 |
| 20260510121513 | 58 | 259 | 0.0 | 1.0 | 0.00 | 0.00 | 0.00 | 91 | 1015.4 |
| 20260510120017 | 58 | 259 | 0.0 | 1.0 | 0.00 | 0.00 | 0.00 | 91 | 1015.3 |
| 20260510114510 | 58 | 267 | 0.0 | 1.0 | 0.00 | 0.00 | 0.00 | 91 | 1015.5 |
| 20260510113013 | 58 | 263 | 0.0 | 1.0 | 0.00 | 0.00 | 0.00 | 90 | 1015.5 |
| 20260510111512 | 58 | 317 | 0.0 | 1.0 | 0.00 | 0.00 | 0.00 | 91 | 1015.4 |
| 20260510110031 | 58 | 335 | 0.0 | 1.0 | 0.00 | 0.00 | 0.00 | 89 | 1015.1 |
| 20260510104521 | 58 | 335 | 0.0 | 2.0 | 0.00 | 0.00 | 0.00 | 89 | 1014.9 |
| 20260510103017 | 59 | 352 | 0.0 | 2.0 | 0.00 | 0.00 | 0.00 | 87 | 1014.7 |
| 20260510101512 | 59 | 113 | 0.0 | 2.0 | 0.00 | 0.00 | 0.00 | 86 | 1014.6 |
| 20260510100015 | 59 | 224 | 0.0 | 1.0 | 0.00 | 0.00 | 0.00 | 85 | 1014.3 |
| 20260510094540 | 59 | 224 | 0.0 | 1.0 | 0.00 | 0.00 | 0.00 | 84 | 1013.9 |
| 20260510093026 | 59 | 224 | 0.0 | 0.0 | 0.00 | 0.00 | 0.00 | 83 | 1013.4 |
| 20260510091525 | 59 | 224 | 0.0 | 1.0 | 0.00 | 0.00 | 0.00 | 85 | 1013.3 |
| 20260510090024 | 58 | 220 | 0.0 | 0.0 | 0.00 | 0.00 | 0.00 | 86 | 1013.7 |
| 20260510084521 | 58 | 220 | 0.0 | 0.0 | 0.00 | 0.00 | 0.00 | 85 | 1013.8 |
| 20260510083016 | 58 | 220 | 0.0 | 1.0 | 0.00 | 0.00 | 0.00 | 85 | 1013.7 |
| 20260510081526 | 58 | 220 | 0.0 | 1.0 | 0.00 | 0.00 | 0.00 | 83 | 1013.7 |
| 20260510080014 | 57 | 220 | 0.0 | 1.0 | 0.00 | 0.00 | 0.00 | 86 | 1013.5 |
| 20260510074515 | 57 | 220 | 0.0 | 1.0 | 0.00 | 0.00 | 0.00 | 86 | 1013.5 |
| 20260510073019 | 57 | 220 | 0.0 | 1.0 | 0.00 | 0.00 | 0.00 | 85 | 1013.5 |
| 20260510071516 | 57 | 220 | 0.0 | 0.0 | 0.00 | 0.00 | 0.00 | 83 | 1013.6 |
| 20260510070023 | 58 | 189 | 0.0 | 1.0 | 0.00 | 0.00 | 0.00 | 81 | 1013.6 |
| 20260510064516 | 58 | 189 | 0.0 | 1.0 | 0.00 | 0.00 | 0.00 | 82 | 1013.7 |
| 20260510063019 | 58 | 188 | 0.0 | 1.0 | 0.00 | 0.00 | 0.00 | 80 | 1013.7 |
| 20260510061508 | 57 | 189 | 0.0 | 1.0 | 0.00 | 0.00 | 0.00 | 81 | 1013.7 |
| 20260510060010 | 57 | 188 | 0.0 | 1.0 | 0.00 | 0.00 | 0.00 | 83 | 1013.9 |
| 20260510054514 | 57 | 182 | 0.0 | 1.0 | 0.00 | 0.00 | 0.00 | 83 | 1013.9 |
| 20260510053044 | 57 | 182 | 0.0 | 2.0 | 0.00 | 0.00 | 0.00 | 82 | 1013.9 |
| 20260510051516 | 57 | 186 | 0.0 | 2.0 | 0.00 | 0.00 | 0.00 | 81 | 1013.9 |
| 20260510050015 | 58 | 184 | 1.0 | 3.0 | 0.00 | 0.00 | 0.00 | 80 | 1013.8 |
| 20260510044510 | 58 | 197 | 1.0 | 3.0 | 0.00 | 0.00 | 0.00 | 81 | 1013.6 |
| 20260510043033 | 58 | 199 | 1.0 | 5.0 | 0.00 | 0.00 | 0.00 | 81 | 1013.5 |
| 20260510041526 | 58 | 188 | 0.0 | 2.0 | 0.00 | 0.00 | 0.00 | 83 | 1013.6 |
| 20260510040033 | 58 | 190 | 0.0 | 3.0 | 0.00 | 0.00 | 0.00 | 82 | 1013.3 |
| 20260510034520 | 59 | 192 | 1.0 | 2.0 | 0.00 | 0.00 | 0.00 | 82 | 1013.1 |
| 20260510033018 | 59 | 193 | 0.0 | 2.0 | 0.00 | 0.00 | 0.00 | 81 | 1012.9 |
| 20260510031518 | 60 | 210 | 0.0 | 1.0 | 0.00 | 0.00 | 0.00 | 80 | 1012.7 |
| 20260510030023 | 61 | 202 | 0.0 | 2.0 | 0.00 | 0.00 | 0.00 | 79 | 1012.5 |
| 20260510024527 | 61 | 190 | 0.0 | 1.0 | 0.00 | 0.00 | 0.00 | 79 | 1012.3 |
| 20260510023016 | 62 | 204 | 0.0 | 1.0 | 0.00 | 0.00 | 0.00 | 77 | 1012.0 |
| 20260510021527 | 63 | 204 | 0.0 | 1.0 | 0.00 | 0.00 | 0.00 | 75 | 1011.6 |
| 20260510020018 | 64 | 204 | 0.0 | 1.0 | 0.00 | 0.00 | 0.00 | 74 | 1011.5 |
| 20260510014514 | 64 | 294 | 0.0 | 1.0 | 0.00 | 0.01 | 0.00 | 75 | 1011.1 |
| 20260510013022 | 65 | 281 | 0.0 | 1.0 | 0.00 | 0.02 | 0.00 | 73 | 1010.7 |
| 20260510011517 | 67 | 281 | 0.0 | 1.0 | 0.00 | 0.03 | 0.00 | 74 | 1010.5 |
| 20260510010019 | 68 | 233 | 0.0 | 1.0 | 0.00 | 0.04 | 0.00 | 72 | 1010.4 |
| 20260510004525 | 71 | 213 | 0.0 | 0.0 | 0.00 | 0.04 | 0.00 | 64 | 1010.4 |
| 20260510003021 | 73 | 213 | 0.0 | 1.0 | 0.00 | 0.04 | 0.00 | 63 | 1010.1 |
| 20260510001516 | 76 | 210 | 0.0 | 2.0 | 0.00 | 0.04 | 0.00 | 46 | 1010.2 |
| 20260510000023 | 77 | 229 | 0.0 | 1.0 | 0.00 | 0.04 | 0.00 | 47 | 1010.1 |
| 20260509234522 | 78 | 248 | 0.0 | 2.0 | 0.00 | 0.04 | 0.00 | 42 | 1010.1 |
| 20260509233022 | 79 | 178 | 0.0 | 3.0 | 0.00 | 0.04 | 0.00 | 37 | 1010.2 |
| 20260509231526 | 80 | 169 | 0.0 | 3.0 | 0.00 | 0.04 | 0.00 | 37 | 1010.4 |
| 20260509230018 | 80 | 300 | 1.0 | 2.0 | 0.00 | 0.04 | 0.00 | 39 | 1010.4 |
| 20260509224520 | 80 | 14 | 0.0 | 2.0 | 0.00 | 0.04 | 0.00 | 40 | 1010.3 |
| 20260509223018 | 80 | 221 | 1.0 | 3.0 | 0.00 | 0.04 | 0.00 | 33 | 1010.2 |
| 20260509221514 | 81 | 296 | 1.0 | 3.0 | 0.00 | 0.04 | 0.00 | 38 | 1010.1 |